#timestamp,LO_Frequency,Hit 
1504029615.4,286046997.7,N
1504029635.3,286046999.3,N
1504029655.1,286046998.7,N
1504029656.0,286046998.7,N
1504029675.8,286046999.5,N
1504029695.7,286046994.9,N
1504029715.5,286046997.5,N
1504029735.3,286046995.3,N
1504029755.2,286046996.6,N
1504029775.9,286047000.8,N
1504029795.7,286047001.2,N
1504029815.6,286047001.1,N
1504029835.4,286047000.2,N
1504029855.2,286047000.6,N
1504029875.0,286047000.7,N
1504029876.0,286047000.7,N
1504029895.8,286047001.7,N
1504029915.6,286047000.8,N
1504029935.5,286046998.4,N
1504029955.3,286046996.8,N
1504029975.1,286046998.0,N
1504029995.9,286046999.1,N
1504030015.7,286046998.0,N
1504030035.5,286046999.5,N
1504030055.4,286046996.6,N
1504030075.2,286046997.2,N
1504030095.0,286047000.7,N
1504030095.9,286047000.7,N
1504030115.8,286046998.9,N
1504030135.6,286046996.8,N
1504030155.4,286046998.3,N
1504030175.2,286047000.0,N
1504030195.1,286046998.3,N
1504030196.0,286046998.3,N
1504030215.8,286047001.2,N
1504030235.6,286047000.5,N
1504030255.5,286047000.2,N
1504030275.3,286047001.6,N
1504030295.1,286047000.2,N
1504030315.9,286046998.4,N
1504030335.7,286046999.4,N
1504030355.5,286046999.5,N
1504030375.4,286046999.9,N
1504030395.2,286047000.7,N
1504030415.0,286046998.8,N
1504030415.9,286046998.8,N
1504030435.8,286047001.1,N
1504030455.6,286047000.0,N
1504030475.4,286047002.0,N
1504030495.3,286047000.7,N
1504030515.1,286046998.2,N
1504030516.0,286046998.2,N
1504030535.8,286046998.9,N
1504030555.7,286046998.3,N
1504030575.5,286046998.5,N
1504030595.3,286047002.8,N
1504030615.1,286047002.3,N
1504030635.9,286047000.9,N
1504030655.7,286047004.3,N
1504030675.5,286047003.6,N
1504030695.9,286047001.9,N
1504030715.7,286047000.1,N
1504030735.5,286047002.8,N
1504030755.4,286047002.4,N
1504030775.2,286046998.5,N
1504030795.0,286047001.1,N
1504030795.9,286047001.1,N
1504030815.8,286047002.5,N
1504030835.6,286047003.4,N
1504030855.4,286047003.6,N
1504030875.3,286047004.2,N
1504030895.1,286047005.2,N
1504030896.0,286047005.2,N
1504030915.8,286047004.5,N
1504030935.7,286047007.5,P
1504030955.5,286047004.1,N
1504030975.3,286047005.4,N
1504030995.2,286047007.6,P
1504031015.0,286047001.3,N
1504031015.9,286047001.3,N
1504031035.7,286047000.4,N
1504031055.6,286047000.1,N
1504031075.4,286047001.9,N
1504031095.2,286047004.3,N
1504031115.1,286047004.1,N
1504031116.0,286047004.1,N
1504031135.8,286047001.5,N
1504031155.6,286047001.3,N
1504031175.5,286047003.5,N
1504031195.3,286047005.5,N
1504031215.1,286047005.1,N
1504031235.9,286047004.6,N
1504031255.7,286047003.0,N
1504031275.5,286047006.2,P
1504031295.4,286047002.9,N
1504031315.2,286047000.1,N
1504031335.0,286047000.8,N
1504031335.9,286047000.8,N
1504031355.8,286046999.7,N
1504031375.6,286047002.1,N
1504031395.4,286046999.9,N
1504031415.3,286047002.0,N
1504031435.1,286047005.7,P
1504031436.0,286047005.7,N
1504031455.8,286047003.5,N
1504031475.7,286047005.7,P
1504031495.5,286046998.4,N
1504031515.3,286047002.7,N
1504031535.2,286047001.6,N
1504031555.9,286047001.7,N
1504031575.7,286047002.6,N
1504031595.6,286046999.7,N
1504031615.4,286047004.0,N
1504031635.2,286047001.4,N
1504031655.1,286047001.6,N
1504031675.9,286047002.0,N
1504031695.7,286047003.9,N
1504031715.5,286047001.8,N
1504031735.4,286047001.9,N
1504031755.2,286047006.0,P
1504031775.0,286047003.0,N
1504031775.9,286047003.0,N
1504031795.8,286047009.2,P
1504031815.6,286047002.9,N
1504031835.4,286047001.8,N
1504031855.3,286047000.4,N
1504031875.1,286047001.2,N
1504031895.8,286047000.0,N
1504031915.7,286047002.5,N
1504031935.5,286046999.7,N
1504031955.3,286047000.0,N
1504031975.2,286047004.4,N
1504031995.9,286047004.1,N
1504032015.7,286047001.6,N
1504032035.6,286047001.0,N
1504032055.4,286047000.4,N
1504032075.2,286046999.7,N
1504032095.1,286047002.4,N
1504032096.0,286047002.4,N
1504032115.8,286047002.2,N
1504032135.6,286047004.0,N
1504032155.4,286047001.8,N
1504032175.3,286047001.7,N
1504032195.1,286046999.9,N
1504032215.8,286047006.0,N
1504032235.7,286047004.0,N
1504032255.0,286047004.0,N
1504032255.9,286047004.0,N
1504032275.7,286047004.2,N
1504032295.6,286047001.9,N
1504032315.4,286047003.9,N
1504032335.2,286047000.0,N
1504032355.1,286047001.0,N
1504032356.0,286047001.0,N
1504032375.8,286047001.8,N
1504032395.6,286047003.9,N
1504032415.5,286047003.8,N
1504032435.3,286047005.5,P
1504032455.1,286047005.0,P
1504032475.9,286047005.9,P
1504032495.7,286047001.3,N
1504032515.5,286047001.5,N
1504032535.4,286047004.1,N
1504032555.2,286047003.3,N
1504032575.0,286047002.1,N
1504032575.9,286047002.1,N
1504032595.8,286047003.4,N
1504032615.6,286047003.8,N
1504032635.4,286047005.8,P
1504032655.3,286047004.4,P
1504032675.1,286047002.3,N
1504032676.0,286047002.3,N
1504032695.8,286047002.2,N
1504032715.7,286047004.1,P
1504032735.5,286047001.1,P
1504032755.3,286046999.7,N
1504032775.2,286046998.6,N
1504032795.9,286047001.2,N
1504032815.7,286047000.8,N
1504032835.6,286047002.7,N
1504032855.4,286047002.4,N
1504032875.2,286047001.1,N
1504032895.1,286046998.2,N
1504032896.0,286046998.2,N
1504032915.8,286047001.2,N
1504032935.6,286046998.1,N
1504032955.5,286046999.7,N
1504032975.3,286046999.9,N
1504032995.1,286047002.3,N
1504033015.9,286047002.7,N
1504033035.7,286047001.6,N
1504033055.5,286047002.7,N
1504033075.3,286047000.9,N
1504033095.2,286047000.8,N
1504033115.0,286047001.0,N
1504033115.9,286047001.0,N
1504033135.7,286047000.5,N
1504033155.6,286047000.1,N
1504033175.4,286046999.3,N
1504033195.2,286046998.9,N
